Tracking 25711 objects as of 22-May-2022
HD Live streaming from Space Station
objects crossing your sky now

CZ-3C DEB

Track CZ-3C DEB now!


NORAD ID: 40818
Int'l Code: 2010-057AK
Perigee: 745.2 km
Apogee: 35,613.2 km
Inclination: 20.3 °
Period: 638.0 minutes
Semi major axis: 24550 km
RCS: Unknown
Launch date: October 31, 2010
Source: People's Republic of China (PRC)
Launch site: Xichang Space Center, China (XSC)

Note: This is SATELLITE DEBRIS
aabbcc
Your satellite tracking list
Your tracking list is empty




NASA's NSSDC Master Catalog

Two Line Element Set (TLE):
1 40818U 10057AK  22135.59274383 -.00000130  00000-0 -10615-2 0  9999
2 40818  20.2516 255.9788 7101382 305.4282   7.5546  2.25694577 59232
Source of the keplerian elements: AFSPC